Location: Stillwell
(40.4602°N, 82.0928°W)
Time: 01:21:11
(UTC-04:00)

Cosmos 1937 Rocket - Pass Details

Date: 25 May 2018
Orbit: 746 x 781 km, 74.0° (Epoch: 20 August)

Event Time Altitude Azimuth Distance (km) Brightness Sun altitude
Rises 21:27:05 0° 347° (NNW) 3,197 7.6 -7.2°
Reaches altitude 10° 21:29:34 10° 354° (N) 2,269 6.6 -7.6°
Maximum altitude 21:34:27 43° 66° (ENE) 1,044 4.0 -8.4°
Enters shadow 21:39:06 11° 137° (SE) 2,187 5.2 -9.1°
